Location: Newark
(50.0306°N, 2.3272°E)
Time: 06:29:25
(UTC+00:00)

Transit 2A Rocket - Pass Details

Date: 15 December 2019
Orbit: 593 x 910 km, 66.7° (Epoch: 27 January)

Event Time Altitude Azimuth Distance (km) Brightness Sun altitude
Rises 16:06:18 0° 233° (SW) 2,915 11.2 -3.1°
Reaches altitude 10° 16:08:41 10° 239° (WSW) 1,979 9.2 -3.5°
Maximum altitude 16:12:56 46° 313° (NW) 817 5.3 -4.0°
Drops below altitude 10° 16:17:05 10° 28° (NNE) 1,936 6.6 -4.6°
Enters shadow 16:18:37 - 33° (NNE) 2,531 7.1 -4.8°
Sets 16:19:24 0° 35° (NE) 2,845 - -4.9°
